| time (UTC) | temp F | wind direction | speed MPH | gust MPH | rain 1hr in | rain 24hr in | rain mn in | humidity % | barometer mb |
| 20260504150640 | 65 | 235 | 3.0 | 11.0 | 0.00 | 0.00 | 0.00 | 59 | 1004.4 |
| 20260504140631 | 61 | 222 | 3.0 | 9.0 | 0.00 | 0.00 | 0.00 | 66 | 1004.7 |
| 20260504130621 | 57 | 246 | 3.0 | 6.0 | 0.00 | 0.00 | 0.00 | 70 | 1005.4 |
| 20260504110528 | 48 | 210 | 0.0 | 0.0 | 0.00 | 0.00 | 0.00 | 82 | 1005.4 |
| 20260504100519 | 47 | 220 | 0.0 | 0.0 | 0.00 | 0.00 | 0.00 | 82 | 1005.4 |
| 20260504081432 | 48 | 219 | 0.0 | 0.0 | 0.00 | 0.00 | 0.00 | 81 | 1006.1 |
| 20260504080430 | 48 | 220 | 0.0 | 0.0 | 0.00 | 0.00 | 0.00 | 80 | 1006.4 |
| 20260504050300 | 50 | 206 | 5.0 | 9.0 | 0.00 | 0.00 | 0.00 | 74 | 1008.5 |
| 20260504045259 | 49 | 203 | 6.0 | 9.0 | 0.00 | 0.00 | 0.00 | 75 | 1008.5 |
| 20260504044258 | 49 | 212 | 4.0 | 9.0 | 0.00 | 0.00 | 0.00 | 75 | 1008.8 |
| 20260504043257 | 49 | 207 | 5.0 | 8.0 | 0.00 | 0.00 | 0.00 | 75 | 1008.5 |
| 20260504042254 | 50 | 209 | 5.0 | 9.0 | 0.00 | 0.00 | 0.00 | 74 | 1008.8 |
| 20260504041254 | 50 | 211 | 5.0 | 10.0 | 0.00 | 0.00 | 0.00 | 74 | 1009.1 |
| 20260504040150 | 50 | 207 | 5.0 | 10.0 | 0.00 | 0.00 | 0.00 | 73 | 1009.1 |
| 20260504035148 | 50 | 217 | 5.0 | 10.0 | 0.00 | 0.00 | 0.00 | 73 | 1009.1 |
| 20260504034146 | 50 | 214 | 5.0 | 8.0 | 0.00 | 0.00 | 0.00 | 72 | 1009.1 |
| 20260504033145 | 50 | 207 | 5.0 | 9.0 | 0.00 | 0.00 | 0.00 | 72 | 1009.5 |
| 20260504032143 | 50 | 208 | 5.0 | 9.0 | 0.00 | 0.00 | 0.00 | 72 | 1009.5 |
| 20260504031142 | 50 | 206 | 5.0 | 9.0 | 0.00 | 0.00 | 0.00 | 73 | 1009.5 |
| 20260504030109 | 50 | 207 | 5.0 | 9.0 | 0.00 | 0.00 | 0.00 | 74 | 1009.5 |
| 20260504025036 | 50 | 204 | 5.0 | 8.0 | 0.00 | 0.00 | 0.00 | 75 | 1009.8 |
| 20260504024034 | 50 | 207 | 4.0 | 8.0 | 0.00 | 0.00 | 0.00 | 76 | 1009.8 |
| 20260504023001 | 50 | 211 | 4.0 | 7.0 | 0.00 | 0.00 | 0.00 | 76 | 1009.8 |
| 20260504022000 | 50 | 211 | 5.0 | 7.0 | 0.00 | 0.00 | 0.00 | 75 | 1009.8 |
| 20260504020926 | 50 | 202 | 4.0 | 8.0 | 0.00 | 0.00 | 0.00 | 75 | 1010.2 |
| 20260504015852 | 50 | 203 | 4.0 | 9.0 | 0.00 | 0.00 | 0.00 | 75 | 1010.2 |
| 20260504014851 | 50 | 204 | 5.0 | 9.0 | 0.00 | 0.00 | 0.00 | 75 | 1009.8 |
| 20260504013848 | 50 | 205 | 4.0 | 8.0 | 0.00 | 0.00 | 0.00 | 75 | 1010.2 |
| 20260504012845 | 50 | 209 | 4.0 | 8.0 | 0.00 | 0.00 | 0.00 | 74 | 1010.2 |
| 20260504011842 | 50 | 203 | 4.0 | 8.0 | 0.00 | 0.00 | 0.00 | 74 | 1010.2 |
| 20260504010841 | 51 | 206 | 4.0 | 8.0 | 0.00 | 0.00 | 0.00 | 74 | 1010.2 |
| 20260504005839 | 51 | 208 | 3.0 | 6.0 | 0.00 | 0.00 | 0.00 | 74 | 1010.2 |
| 20260504004837 | 51 | 210 | 3.0 | 7.0 | 0.00 | 0.00 | 0.00 | 73 | 1010.2 |
| 20260504003835 | 51 | 213 | 3.0 | 7.0 | 0.00 | 0.00 | 0.00 | 74 | 1010.2 |
| 20260504002834 | 51 | 220 | 3.0 | 6.0 | 0.00 | 0.00 | 0.00 | 73 | 1010.2 |
| 20260504001801 | 52 | 216 | 2.0 | 8.0 | 0.00 | 0.00 | 0.00 | 73 | 1010.2 |
| 20260504000758 | 52 | 215 | 2.0 | 8.0 | 0.00 | 0.00 | 0.00 | 73 | 1010.5 |
| 20260503235757 | 52 | 217 | 0.0 | 0.0 | 0.00 | 0.00 | 0.00 | 72 | 1010.5 |
| 20260503234755 | 52 | 231 | 0.0 | 0.0 | 0.00 | 0.00 | 0.00 | 70 | 1010.5 |
| 20260503233722 | 53 | 212 | 0.0 | 7.0 | 0.00 | 0.00 | 0.00 | 70 | 1010.5 |
| 20260503232720 | 53 | 224 | 0.0 | 8.0 | 0.00 | 0.00 | 0.00 | 67 | 1010.8 |
| 20260503231719 | 53 | 222 | 3.0 | 10.0 | 0.00 | 0.00 | 0.00 | 66 | 1010.8 |
| 20260503230717 | 53 | 241 | 3.0 | 10.0 | 0.00 | 0.00 | 0.00 | 65 | 1011.2 |
| 20260503225612 | 54 | 240 | 3.0 | 13.0 | 0.00 | 0.00 | 0.00 | 65 | 1011.2 |
| 20260503224538 | 54 | 246 | 7.0 | 16.0 | 0.00 | 0.00 | 0.00 | 65 | 1011.2 |
| 20260503223505 | 54 | 250 | 8.0 | 16.0 | 0.00 | 0.00 | 0.00 | 64 | 1011.5 |
| 20260503222504 | 55 | 253 | 9.0 | 17.0 | 0.00 | 0.00 | 0.00 | 62 | 1011.2 |
| 20260503221430 | 56 | 249 | 9.0 | 17.0 | 0.00 | 0.00 | 0.00 | 62 | 1011.5 |
| 20260503220428 | 57 | 251 | 9.0 | 19.0 | 0.00 | 0.00 | 0.00 | 60 | 1011.2 |
| 20260503215427 | 58 | 259 | 7.0 | 19.0 | 0.00 | 0.00 | 0.00 | 57 | 1011.2 |
| 20260503214424 | 59 | 252 | 13.0 | 23.0 | 0.00 | 0.00 | 0.00 | 56 | 1010.8 |
| 20260503213423 | 61 | 244 | 12.0 | 23.0 | 0.00 | 0.00 | 0.00 | 48 | 1010.5 |
| 20260503212418 | 61 | 235 | 8.0 | 17.0 | 0.00 | 0.00 | 0.00 | 46 | 1010.5 |
| 20260503211416 | 62 | 226 | 8.0 | 17.0 | 0.00 | 0.00 | 0.00 | 43 | 1010.5 |
| 20260503210413 | 63 | 242 | 9.0 | 16.0 | 0.00 | 0.00 | 0.00 | 45 | 1010.5 |
| 20260503205339 | 63 | 236 | 7.0 | 18.0 | 0.00 | 0.00 | 0.00 | 43 | 1010.8 |
| 20260503204336 | 63 | 255 | 11.0 | 18.0 | 0.00 | 0.00 | 0.00 | 43 | 1010.8 |
| 20260503203332 | 62 | 243 | 7.0 | 20.0 | 0.00 | 0.00 | 0.00 | 45 | 1010.8 |
| 20260503202329 | 63 | 249 | 8.0 | 20.0 | 0.00 | 0.00 | 0.00 | 43 | 1011.2 |
| 20260503201327 | 62 | 243 | 7.0 | 16.0 | 0.00 | 0.00 | 0.00 | 43 | 1011.2 |
| 20260503200326 | 62 | 248 | 10.0 | 19.0 | 0.00 | 0.00 | 0.00 | 42 | 1011.5 |
| 20260503195252 | 63 | 250 | 9.0 | 19.0 | 0.00 | 0.00 | 0.00 | 41 | 1011.5 |
| 20260503194250 | 63 | 230 | 7.0 | 17.0 | 0.00 | 0.00 | 0.00 | 43 | 1011.5 |
| 20260503193248 | 64 | 243 | 7.0 | 16.0 | 0.00 | 0.00 | 0.00 | 40 | 1011.9 |
| 20260503192242 | 63 | 244 | 7.0 | 18.0 | 0.00 | 0.00 | 0.00 | 42 | 1011.9 |
| 20260503191239 | 63 | 235 | 7.0 | 18.0 | 0.00 | 0.00 | 0.00 | 40 | 1011.9 |
| 20260503190133 | 63 | 240 | 7.0 | 17.0 | 0.00 | 0.00 | 0.00 | 39 | 1011.9 |
| 20260503185059 | 63 | 242 | 9.0 | 18.0 | 0.00 | 0.00 | 0.00 | 40 | 1012.2 |
| 20260503184057 | 62 | 235 | 7.0 | 18.0 | 0.00 | 0.00 | 0.00 | 40 | 1012.2 |
| 20260503183053 | 62 | 240 | 7.0 | 19.0 | 0.00 | 0.00 | 0.00 | 41 | 1012.5 |
| 20260503182017 | 62 | 253 | 10.0 | 19.0 | 0.00 | 0.00 | 0.00 | 41 | 1012.9 |
| 20260503181014 | 62 | 240 | 10.0 | 17.0 | 0.00 | 0.00 | 0.00 | 39 | 1012.9 |
| 20260503180013 | 62 | 249 | 8.0 | 19.0 | 0.00 | 0.00 | 0.00 | 39 | 1012.9 |
| 20260503175009 | 61 | 251 | 10.0 | 28.0 | 0.00 | 0.00 | 0.00 | 41 | 1013.2 |
| 20260503174009 | 60 | 250 | 13.0 | 28.0 | 0.00 | 0.00 | 0.00 | 38 | 1013.2 |
| 20260503173008 | 60 | 249 | 9.0 | 21.0 | 0.00 | 0.00 | 0.00 | 41 | 1013.2 |
| 20260503172007 | 61 | 247 | 11.0 | 18.0 | 0.00 | 0.00 | 0.00 | 39 | 1013.5 |
| 20260503170934 | 61 | 244 | 7.0 | 14.0 | 0.00 | 0.00 | 0.00 | 40 | 1013.5 |